SL-4 R/B (43244 NORAD) Tracking and Keplerian Element Data

This shows tracking and keplerian element data for the satellite.

Feedback or suggestion? Click here.




ElementValue
Catalog43244
NameSL-4 R/B
Epoch Orbit411
Epoch Day114.66211757
Epoch Year2018
RAAN170.4272
Inclination96.6416
Eccentricity0.0003836
Argument of Perigee137.5876
Mean Anonmoly222.5694
Mean Motion15.86824131
Decay Rate0.00027836
L11 43244U 18028B 18114.66211757 .00027836 00000-0 10966-3 0 9997
L22 43244 96.6416 170.4272 0003836 137.5876 222.5694 15.86824131 4116

Live tracking and technical data element details for SL-4 R/B (NORAD 43244). SL-4 R/B can be tracked NOW for your location showing map with azimuth and elevation plus other details from your city location.

Track the satellite on the map from your city or location and see movement details for azimuth, elevation, latitude, longitude, range, height, and movement on the map or in text.







IsCatalogInMostPopularTable: catalog: 43244, numindb: 51
Update: records affected: 1



GetName: 43244 SL-4 R/B

Hit Count: updated at: Thu, 15 Nov 2018 04:15:55 GMT